Theta_e
293 293 293 292 291 291 290 290 283 287 290 295 296 298 298 299 299 299 298 298 297 296 295 295 295 294 293 293 295 296 297 297 296 296 296 294 293 293 292 290 288 287 287 287
286 293 292 289 291 291 291 292 291 291 291 298 298 298 298 298 298 296 296 296 296 296 295 294 293 292 293 292 292 293 292 293 296 295 295 295 295 293 290 288 286 286 286 286
282 289 287 281 288 293 293 294 292 285 292 297 295 296 295 295 295 294 294 295 295 295 294 293 291 292 290 290 291 291 292 294 295 294 294 293 294 292 290 288 285 285 285 285
278 280 273 292 297 296 293 294 294 296 296 296 295 295 295 295 293 293 294 294 295 293 291 291 290 290 290 290 290 290 291 292 293 293 292 293 293 290 288 287 284 283 283 283
279 278 284 291 295 293 290 289 298 296 296 296 297 296 293 296 295 294 293 293 291 291 290 289 289 289 289 289 288 289 291 291 291 291 291 291 291 289 287 284 283 283 283 282
280 273 271 287 296 299 297 282 298 297 295 294 294 283 289 296 296 292 292 292 290 290 289 288 288 288 288 288 287 289 291 291 291 291 290 289 290 289 284 283 283 283 282 282
282 272 282 294 298 299 282 284 297 297 295 294 290 291 295 297 293 292 291 291 291 289 287 287 288 288 287 287 287 290 292 291 291 290 289 289 287 284 283 281 281 279 279 279
282 276 276 298 296 287 292 298 298 296 296 295 295 296 297 294 292 292 290 289 289 288 287 288 289 288 287 287 289 290 290 290 288 288 287 287 284 283 282 280 279 277 271 273
286 284 294 298 296 299 300 298 296 298 299 297 296 297 294 291 291 291 288 287 288 287 287 288 289 288 287 288 289 289 288 286 286 287 287 286 283 280 279 279 276 275 276 271
290 295 297 297 301 301 300 298 299 299 299 299 297 293 292 291 289 288 287 286 287 287 287 287 288 289 288 289 288 287 285 285 284 284 284 284 282 281 279 275 273 277 274 272
289 295 297 299 299 299 299 300 300 301 301 298 293 291 290 288 288 287 286 287 287 286 287 288 288 288 288 288 287 286 285 284 282 282 282 282 281 279 279 277 276 274 272 272
286 296 296 296 299 301 300 300 301 299 293 294 291 289 288 286 287 286 286 287 287 288 288 288 288 288 289 289 286 284 283 282 280 279 278 280 280 279 282 281 281 280 279 271
295 301 300 299 300 300 298 296 295 294 293 289 289 288 287 286 287 287 287 287 287 287 288 288 286 286 288 286 285 283 282 282 279 279 278 278 277 276 272 278 283 283 281 280
302 300 296 298 297 299 296 295 296 293 290 289 288 288 287 286 286 286 286 287 288 287 287 286 286 286 287 287 285 282 282 280 278 276 275 276 275 280 279 276 274 273 279 280
299 300 299 300 299 297 296 291 289 287 287 287 287 287 286 285 285 285 286 287 286 285 285 285 285 287 288 286 285 284 282 278 278 275 273 276 280 279 279 277 278 275 273 275
299 300 300 297 294 291 289 288 287 286 286 286 286 285 287 286 286 285 285 285 282 283 283 281 282 286 286 286 285 284 281 278 276 275 274 279 280 278 278 278 278 276 273 269
296 293 293 291 288 288 288 288 287 286 286 286 284 284 285 283 282 282 282 281 279 281 283 281 284 287 286 286 285 284 278 278 276 276 275 279 279 278 278 277 277 276 272 269
295 293 292 290 288 287 287 286 285 284 284 284 280 275 274 274 279 281 280 282 284 284 284 284 285 286 285 285 284 282 280 277 276 274 277 279 279 279 277 276 276 276 272 271
292 290 290 290 289 286 285 285 285 284 280 278 276 278 277 277 280 281 283 283 283 282 283 285 285 286 285 282 280 276 273 272 278 279 277 274 274 276 278 278 277 277 276 271
289 289 288 288 287 284 283 284 280 283 284 280 274 273 278 275 281 284 284 283 283 284 284 285 286 285 283 282 278 276 271 270 275 277 270 271 275 278 278 279 278 276 273 275
285 286 284 284 283 282 281 281 277 281 283 277 276 279 278 278 277 283 282 282 283 280 283 286 285 286 285 281 277 275 272 270 271 271 271 272 273 276 279 278 278 273 271 274
285 284 281 280 281 283 283 283 283 280 281 284 277 276 273 278 279 282 284 283 283 284 284 285 283 286 285 282 282 280 275 275 276 276 269 272 273 275 276 277 278 278 276 272
285 285 284 280 279 284 284 282 280 282 282 280 279 282 284 281 282 282 281 281 282 285 285 285 285 285 285 285 282 281 280 275 273 274 275 276 279 280 280 279 279 279 278 278
285 285 284 284 280 280 282 285 284 284 282 281 284 285 282 280 281 282 284 285 285 285 285 286 285 285 285 284 282 281 278 279 279 277 275 272 276 278 277 279 279 279 279 279
283 284 284 280 282 283 284 285 284 283 282 283 282 281 279 279 280 284 286 286 285 285 285 286 285 285 285 284 282 281 280 281 280 280 279 278 279 280 278 279 280 280 279 279
284 283 283 285 284 284 284 283 283 283 279 276 276 275 275 276 283 285 285 286 286 285 285 285 285 285 285 285 283 282 282 282 282 282 282 280 281 280 280 280 279 280 280 279
284 281 282 283 283 283 283 280 277 281 281 281 280 277 278 284 285 282 284 285 285 285 285 285 285 285 285 285 285 283 283 283 283 283 282 281 279 279 279 280 279 279 278 278
Wind_Speed
5 5 4 3 4 5 5 6 7 9 7 9 8 8 5 5 7 8 7 6 6 6 6 6 5 6 6 7 7 8 7 8 9 4 5 3 4 3 5 7 2 3 4 4
2 6 8 4 7 7 7 7 6 3 5 10 7 6 6 7 8 7 6 7 6 7 7 5 5 5 6 7 7 7 10 13 7 4 3 2 4 7 6 2 2 4 5 3
3 4 5 5 4 3 1 1 1 1 1 6 8 9 8 8 6 5 5 6 6 7 6 5 6 6 6 6 6 7 11 11 5 4 5 4 6 6 3 5 3 6 4 5
3 4 2 5 4 1 5 5 7 10 11 10 7 7 8 7 5 4 3 5 7 5 4 6 4 5 4 5 6 6 6 7 6 4 5 5 5 4 5 4 4 2 4 6
3 1 6 7 2 4 4 4 7 8 7 6 5 5 4 5 3 1 3 4 3 2 2 3 5 5 6 6 6 5 5 5 4 4 6 7 10 10 6 3 2 4 4 6
2 5 7 7 4 6 3 4 3 7 5 4 2 2 4 6 5 2 5 4 3 4 4 6 6 5 5 6 5 4 5 4 3 4 3 4 7 9 3 2 5 4 4 4
3 3 8 9 4 5 5 8 3 5 4 3 1 5 4 7 2 4 3 4 5 5 3 4 6 6 6 5 4 2 2 4 5 5 6 7 4 2 3 6 5 4 4 5
3 2 9 7 4 8 7 4 7 5 5 3 1 4 6 3 5 6 5 6 5 4 4 6 7 6 6 5 4 4 4 5 5 6 5 4 4 4 6 5 5 3 4 3
10 9 8 6 8 5 6 5 5 5 4 2 3 4 3 3 5 4 5 5 4 5 7 7 6 6 5 4 5 5 5 5 5 6 5 5 5 5 3 4 3 2 3 2
5 6 6 7 4 6 6 8 7 6 4 3 5 2 3 4 4 5 6 6 5 7 6 6 6 5 2 3 3 3 4 5 5 5 5 5 4 3 4 2 3 2 2 2
3 3 5 6 7 7 7 5 6 6 5 3 2 4 4 5 6 5 5 5 5 6 7 9 6 6 6 6 2 3 3 4 5 4 5 4 3 3 2 1 3 1 1 1
7 4 5 4 6 7 5 6 6 5 5 5 7 6 6 5 3 4 6 6 7 8 10 8 5 6 10 8 3 3 1 2 2 2 3 4 4 3 3 3 2 2 4 4
4 4 7 9 6 6 4 6 8 7 4 6 6 6 5 3 4 5 6 7 7 10 9 8 7 6 5 7 6 3 3 3 2 2 2 1 2 1 3 5 7 6 8 5
11 10 5 6 4 7 8 7 6 5 7 7 6 6 5 4 4 6 7 6 8 6 9 10 10 9 3 6 7 3 4 6 3 2 1 1 1 3 2 2 3 4 5 5
8 6 6 8 6 8 6 7 7 7 6 6 6 4 4 4 5 6 6 8 6 6 7 9 11 11 8 4 6 7 4 3 4 3 2 2 1 1 1 2 2 2 3 3
9 8 6 9 9 8 8 7 7 5 5 3 2 4 3 5 6 7 7 6 6 11 12 9 10 10 6 5 6 4 4 2 4 2 3 2 1 1 2 2 2 2 1 3
10 7 8 8 9 7 7 6 6 2 1 2 5 5 5 6 6 7 6 5 5 8 10 10 13 11 5 5 5 3 0 1 3 2 3 2 2 2 2 2 3 3 2 4
13 13 10 10 8 7 5 3 1 3 3 3 4 4 4 4 7 9 6 7 13 10 11 11 10 7 6 6 5 3 3 2 2 3 3 2 3 3 3 2 3 3 3 3
13 11 11 11 8 6 2 3 4 3 4 4 3 6 5 5 6 6 7 10 13 13 11 6 9 9 6 6 5 2 2 3 3 2 3 4 3 3 3 3 3 3 3 3
11 9 9 6 3 2 3 4 4 4 6 3 3 4 5 4 5 7 10 10 8 9 10 8 8 8 7 6 5 3 4 4 4 3 3 3 4 5 3 4 4 4 3 4
7 6 2 3 4 4 4 4 3 5 7 4 4 6 7 6 6 6 8 8 8 5 6 11 6 8 5 5 4 4 4 4 4 4 4 4 4 4 5 4 3 3 3 3
3 0 3 3 3 5 5 5 5 5 5 7 6 5 4 8 8 8 8 8 7 5 7 5 5 10 6 6 4 5 5 6 5 4 3 4 4 4 4 3 4 3 3 3
2 3 4 4 4 6 4 4 5 7 8 7 6 6 8 7 6 7 9 5 4 7 7 8 8 12 10 6 5 5 5 5 5 5 4 5 5 5 4 5 4 4 3 4
3 4 4 4 3 2 6 7 7 7 7 7 7 9 6 5 6 5 7 9 7 8 8 9 9 9 9 5 5 5 6 7 8 6 5 7 5 5 5 5 5 5 4 5
4 4 3 3 5 5 7 8 6 6 6 6 5 4 6 4 5 7 6 7 9 7 7 10 11 12 7 6 7 8 7 7 7 7 7 7 7 6 5 4 5 5 4 4
5 4 4 6 5 5 5 4 5 5 3 3 3 3 4 4 5 6 6 8 8 10 8 7 7 7 7 8 8 9 9 9 10 9 9 8 8 6 5 5 4 4 4 3
5 4 3 3 3 4 4 2 2 3 2 3 5 5 5 5 6 5 7 7 7 7 8 7 7 8 8 9 10 10 10 10 12 9 8 8 7 6 5 5 4 3 3 3
Wind_Direction
352 337 329 327 311 312 286 228 154 245 229 104 121 122 96 80 71 63 53 33 27 353 334 333 357 1 342 332 336 330 297 306 266 306 80 58 331 343 311 255 295 278 296 309
323 35 16 314 297 285 279 290 301 11 79 131 124 95 81 71 68 54 30 23 2 336 322 354 4 333 339 347 341 347 340 329 350 64 54 305 298 245 249 286 306 292 286 324
252 359 354 3 246 272 356 11 98 323 132 105 63 50 81 77 57 49 26 4 325 308 316 348 327 2 14 343 324 335 353 4 360 6 347 294 243 270 322 319 293 282 15 73
213 19 39 231 332 16 109 52 9 81 78 74 68 86 93 76 69 24 339 294 302 307 336 333 12 20 340 332 347 353 20 350 338 7 352 338 299 284 275 268 290 67 70 62
114 210 297 325 69 88 97 307 57 93 73 68 49 119 114 132 135 246 285 285 276 297 318 12 27 348 341 336 338 351 348 353 353 347 337 355 346 303 286 279 95 73 64 40
88 134 209 228 122 84 61 267 75 98 70 42 52 92 257 338 329 8 324 318 339 354 16 35 338 318 315 316 328 21 7 350 349 310 301 268 253 270 295 59 94 79 56 14
170 210 284 251 163 120 104 233 132 118 117 94 130 191 241 290 310 342 310 341 8 18 26 311 311 306 309 301 349 41 336 319 307 295 284 274 307 9 5 87 88 76 54 28
192 191 272 221 121 151 202 148 152 118 127 102 77 299 284 308 351 324 336 3 360 24 341 312 303 333 330 359 339 345 339 330 335 338 325 352 355 353 73 87 74 50 59 7
177 211 226 208 188 176 143 133 152 138 119 101 243 242 280 325 315 350 8 333 10 356 319 312 5 352 359 345 7 344 342 348 336 333 339 352 16 45 69 76 74 44 40 23
109 241 230 165 95 110 113 119 117 109 117 214 249 242 329 347 4 14 4 11 335 336 335 339 335 343 345 315 304 354 12 357 352 360 353 352 24 59 85 73 60 39 22 6
253 276 91 45 102 115 111 118 147 160 201 196 93 25 47 37 22 15 353 341 348 342 341 327 345 345 325 303 320 66 24 352 352 339 343 337 34 67 110 69 152 173 193 191
234 220 154 139 137 140 152 165 186 157 90 52 63 64 55 33 17 7 352 346 346 340 329 324 341 329 326 316 139 130 51 327 304 314 340 1 45 41 41 180 230 187 193 160
192 133 115 143 128 135 153 113 94 92 71 73 55 63 48 35 8 360 351 341 336 325 321 324 311 319 8 2 325 244 217 263 275 310 4 43 70 55 347 328 341 291 232 242
135 121 131 151 156 157 113 123 116 91 82 76 70 47 43 10 2 348 327 319 319 323 327 319 314 312 318 336 297 232 250 253 207 174 188 204 216 339 294 300 304 308 278 204
138 99 119 141 126 117 114 96 80 69 65 49 43 44 5 352 330 306 303 308 299 304 303 309 310 302 314 299 284 268 271 261 201 160 228 232 263 277 272 289 294 279 338 55
144 147 142 135 108 96 93 74 78 69 55 22 7 323 303 314 297 293 291 287 313 312 309 301 291 289 272 277 289 286 301 227 169 180 226 198 265 232 269 267 276 293 298 221
134 124 122 101 96 86 83 83 90 103 291 305 287 281 301 293 280 281 290 287 280 288 291 284 288 290 264 253 269 261 186 177 224 232 259 205 199 230 251 259 261 263 264 214
91 92 89 97 92 88 77 93 182 246 250 262 273 288 282 279 281 295 299 311 320 310 312 283 286 283 256 253 245 209 173 199 207 211 240 222 227 197 230 249 259 251 258 241
86 92 80 76 78 79 47 298 278 260 281 268 283 275 256 266 277 284 302 317 314 310 308 294 291 301 246 245 240 200 183 242 256 239 239 241 220 242 230 231 250 250 241 256
71 68 68 71 79 162 252 265 256 274 280 273 278 300 294 273 267 299 307 293 280 277 289 294 287 297 246 237 223 197 204 216 230 237 245 238 217 236 230 227 244 254 249 248
79 82 103 207 239 247 227 240 237 259 269 231 228 263 261 266 262 261 286 293 295 275 298 301 297 289 245 229 218 214 215 219 221 230 244 247 238 226 238 222 227 235 255 241
124 159 258 263 254 271 266 255 249 254 268 279 256 258 271 278 276 267 235 260 295 296 317 289 285 289 239 232 232 215 225 220 221 216 230 245 232 230 230 211 223 234 244 251
244 246 247 248 251 267 273 274 263 248 255 246 243 252 264 251 259 287 297 242 254 285 303 293 281 293 250 237 218 199 221 240 235 227 223 228 234 231 227 219 214 211 231 246
258 271 270 265 275 292 292 283 264 256 240 243 244 250 247 273 282 236 251 271 274 280 297 291 282 280 275 234 221 216 219 226 243 237 232 229 229 228 234 236 231 214 209 227
288 288 283 290 285 268 263 267 276 273 263 250 235 225 227 239 246 296 286 285 283 276 285 290 275 264 261 249 235 233 228 226 232 231 230 229 230 230 219 217 221 225 211 212
290 275 261 254 243 251 259 266 263 269 268 266 277 263 263 254 258 273 286 286 287 284 279 282 285 272 258 251 243 240 237 234 231 230 228 224 230 222 224 239 229 222 217 212
271 257 284 296 279 265 264 272 336 304 299 283 277 259 254 265 273 273 282 289 296 295 288 280 283 287 277 269 265 251 244 240 235 230 217 216 214 213 205 211 211 202 203 203